Terug naar catalogus

COSMOS 1275 DEB

LostPO
NORAD 42186·DEBRIS·🇷🇺 Russia

Gelanceerd Jun 4, 1981 vanaf Plesetsk Cosmodrome

Loading…

Volgende Passages (komende 24 uur)

TLE

VerouderdSource: Space-Track

Epoch: Oct 16, 2022, 19:10 UTC

1 42186U 81053TA  22289.79870421  .00002395  00000-0  16518-2 0  9991
2 42186  83.1156 312.1278 0051148 287.2390  72.3185 13.98241675454141

Volg COSMOS 1275 DEB in realtime met AllMySat

Download on the App Store